Regional Weather Roundup
Issued by NWS Little Rock, AR

Home | Current Version | Previous Version | Text Only | Print | Product List | Glossary On
Versions: 1 2 3 4 5 6 7 8 9 10 11 12 13 14 15 16 17 18 19 20 21 22 23 24 25 26 27 28 29 30 31 32 33 34 35 36 37 38 39 40 41 42 43 44 45 46 47 48 49 50
718
ASUS44 KLZK 141305
RWRLZK

WEATHER ROUNDUP FOR ARKANSAS
NATIONAL WEATHER SERVICE LITTLE ROCK AR
700 AM CST THU DEC 14 2017

NOTE: "FAIR" INDICATES FEW OR NO CLOUDS BELOW 12,000 FEET WITH NO
SIGNIFICANT WEATHER AND/OR OBSTRUCTIONS TO VISIBILITY.

ARZ001-003-010-029-141400-
NORTHWEST ARKANSAS

CITY           SKY/WX    TMP DP  RH WIND       PRES   REMARKS
FAYETTEVILLE   CLOUDY    37  29  72 VRB6      30.00R
FORT SMITH     MOCLDY    43  30  60 N6        30.02R
HARRISON       MOCLDY    36  27  69 N10       30.00R
BENTONVILLE    CLOUDY    35  27  72 N10       30.04R WCI  27
ROGERS         CLOUDY    34  27  75 N7        30.03R WCI  28
SILOAM SPGS    CLOUDY    35  27  72 N10       30.02S WCI  27
HIGHFILL       CLOUDY    34  27  75 N8        30.02R WCI  27
SPRINGDALE     CLEAR     36  27  69 N10       30.02R
$$

ARZ004-005-016-141400-
NORTH CENTRAL ARKANSAS

CITY           SKY/WX    TMP DP  RH WIND       PRES   REMARKS
BATESVILLE     CLOUDY    40  28  62 NW5       29.99R
FLIPPIN        CLOUDY    39  27  62 N6        30.02R
MTN HOME       PTCLDY    36  28  73 N3        30.00R
$$

ARZ040-041-141400-
WEST CENTRAL ARKANSAS

CITY           SKY/WX    TMP DP  RH WIND       PRES   REMARKS
MENA           CLEAR     34  30  86 CALM      29.99R
MOUNT IDA      CLEAR     29  25  85 CALM      29.97R
$$

ARZ009-017-025-026-028-141400-
NORTHEAST ARKANSAS

CITY           SKY/WX    TMP DP  RH WIND       PRES   REMARKS
CORNING        PTSUNNY   36  28  75 NE6       29.99R
JONESBORO      CLOUDY    33  28  81 CALM      29.98R
WALNUT RIDGE   PTCLDY    34  28  79 CALM      29.99R
BLYTHEVILLE    CLOUDY    33  28  81 CALM      29.99R
$$

ARZ022-023-033-042-044-141400-
CENTRAL ARKANSAS

CITY           SKY/WX    TMP DP  RH WIND       PRES   REMARKS
LITTLE ROCK    PTCLDY    42  29  59 N6        29.99R
N LITTLE ROCK    N/A     43  29  57 N3        30.01R
JACKSONVILLE   CLEAR     29  25  84 W6        29.98R WCI  23
SEARCY         CLEAR     36  30  79 N3        29.99R
HOT SPRINGS    CLEAR     31  29  92 CALM      29.99R
RUSSELLVILLE   CLEAR     28  26  92 CALM      30.00R
CLINTON        FAIR      30  28  93 CALM      29.99R
$$

ARZ036-141400-
EAST ARKANSAS

CITY           SKY/WX    TMP DP  RH WIND       PRES   REMARKS
WEST MEMPHIS   CLEAR     35  30  82 NE5       29.96R WCI  31
$$

ARZ050-053-066-070-073-141400-
SOUTHWEST ARKANSAS

CITY           SKY/WX    TMP DP  RH WIND       PRES   REMARKS
ARKADELPHIA    FAIR      25  22  88 CALM      30.00R
CAMDEN         CLOUDY    30  27  86 CALM      29.98R
TEXARKANA      CLEAR     33  31  92 CALM      29.96R
EL DORADO      PTCLDY    30  30 100 CALM      29.97R
DE QUEEN       CLEAR     27  27 100 CALM      29.97R
$$

ARZ056-057-069-141400-
SOUTHEAST ARKANSAS

CITY           SKY/WX    TMP DP  RH WIND       PRES   REMARKS
PINE BLUFF     CLEAR     31  27  85 NW3       29.97R
STUTTGART      CLEAR     35  28  75 N6        29.98R WCI  30
MONTICELLO     CLEAR     34  29  82 NW3       29.96R

$$






USA.gov is the U.S. government's official web portal to all federal, state and local government web resources and services.